AirNav   Textron
 
 1477 users online  

26WI Kitty-Wompus Airport
Exeland, Wisconsin, USA

GOING TO EXELAND?


FAA INFORMATION EFFECTIVE 14 SEPTEMBER 2017

Location

FAA Identifier: 26WI
Lat/Long: 45-41-56.8500N / 091-18-12.5700W
45-41.947500N / 091-18.209500W
45.6991250 / -91.3034917
(estimated)
Elevation: 1336 ft. / 407 m (estimated)
Variation: 01E (1990)
From city: 4 miles NW of EXELAND, WI
Time zone: UTC -5 (UTC -6 during Standard Time)
Zip code: 54835

Airport Operations

Airport use: Private use. Permission required prior to landing
Activation date: 03/1993
Control tower: no
ARTCC: MINNEAPOLIS CENTER
FSS: GREEN BAY FLIGHT SERVICE STATION
NOTAMs facility: FDC (NOTAM-D service not available)
Attendance: UNATNDD
Wind indicator: yes
Segmented circle: no

Airport Communications

WX AWOS-3 at RCX (18 nm SE): 118.125 (715-532-2665)

Nearby radio navigation aids

VOR radial/distance  VOR name  Freq  Var
HYRr160/20.1HAYWARD VOR/DME113.4003E

 
NDB name  Hdg/Dist  Freq  Var  ID
RUSK COUNTY313/17.435600WRCX .-. -.-. -..-
PARK FALLS248/39.737101WPKF .--. -.- ..-.

Airport Services

Runway Information

Runway 16/34

Dimensions: 3000 x 200 ft. / 914 x 61 m
Surface: turf
RUNWAY 16  RUNWAY 34
Traffic pattern: leftleft
Obstructions: roadtrees

Airport Ownership and Management from official FAA records

Ownership: Privately-owned
Owner: JORDAN A. ARVOLD
1339 HUNGERFORD PT.
ST. CROIX FALLS, WI 54024
Phone 715-483-9783
Manager: JORDAN A. ARVOLD
1339 HUNGERFORD PT.
ST. CROIX FALLS, WI 54024
Phone 715-483-9783

Instrument Procedures

There are no published instrument procedures at 26WI.

Some nearby airports with instrument procedures:

KRCX - Rusk County Airport (18 nm SE)
KHYR - Sawyer County Airport (20 nm N)
KRPD - Rice Lake Regional Airport - Carl's Field (26 nm SW)
KSSQ - Shell Lake Municipal Airport (26 nm W)
Y23 - Chetek Municipal-Southworth Airport (27 nm SW)
 
Loc | Ops | Rwys | IFR | FBO | Links
Com | Nav | Svcs | Stats | Notes


 
Area around 26WI (Kitty-Wompus Airport)
 
Road maps at: MapQuest Bing Google
 
Aerial photo
No photo
 
Sectional chart

 
Airport distance calculator
Flying to Kitty-Wompus Airport? Find the distance to fly.

From to 26WI

Sunrise and sunset
Times for 20-Sep-2017
 Local
(UTC-5)
 Zulu
(UTC)
Morning civil twilight06:2111:21
Sunrise06:5111:51
Sunset19:0700:07
Evening civil twilight19:3600:36

Current date and time
Zulu (UTC)  20-Sep-2017 20:39:51
Local (UTC-5)  20-Sep-2017 15:39:51
 
METAR
KRCX 
18nm SE 
202015Z AUTO 28011KT 10SM SCT018 SCT029 BKN055 24/19 A2981 RMK AO2 T02350186
KHYR 
20nm N 
201953Z AUTO 23006KT 10SM OVC043 22/16 A2979 RMK AO2 SLP085 T02220156
KRPD 
22nm SW 
202015Z AUTO 28008G15KT 240V300 10SM SCT043 OVC050 24/13 A2983 RMK AO2 T02420127
KY23 
27nm SW 
202015Z AUTO 27004KT SCT036 BKN042 OVC050 23/16 A2982 RMK AO2 T02300158 PWINO
KUBE 
31nm W 
202015Z AUTO 26009G15KT 10SM CLR 22/12 A2982 RMK AO2
TAF
KHYR 
20nm N 
201931Z 2020/2118 26009KT P6SM SCT030 BKN045 FM202100 26009KT P6SM FEW040 FM210000 27003KT P6SM SKC FM211600 13008KT P6SM FEW250
NOTAMs
Click for the latest NOTAMs
NOTAMs are issued by the DoD/FAA and will open in a separate window not controlled by AirNav.

 

 
 

Would you like to see your business listed on this page?

 If your business provides an interesting product or service to pilots, flight crews, aircraft, or users of the Kitty-Wompus Airport, you should consider listing it here.  To start the listing process, click on the button below
 
Add a business
 

Other Pages about Kitty-Wompus Airport

Update a link
 
Copyright © AirNav, LLC. All rights reserved. Privacy Policy  Contact